| time (UTC) | temp F | wind direction | speed MPH | gust MPH | rain 1hr in | rain 24hr in | rain mn in | humidity % | barometer mb |
| 20260506221533 | 44 | 24 | 2.0 | 4.0 | 0.00 | 0.47 | 0.45 | 95 | 1007.5 |
| 20260506220036 | 44 | 354 | 1.0 | 3.0 | 0.00 | 0.47 | 0.45 | 95 | 1007.5 |
| 20260506214532 | 44 | 21 | 2.0 | 5.0 | 0.00 | 0.47 | 0.45 | 95 | 1007.5 |
| 20260506213038 | 44 | 50 | 2.0 | 6.0 | 0.00 | 0.47 | 0.45 | 95 | 1007.3 |
| 20260506211532 | 45 | 49 | 3.0 | 5.0 | 0.00 | 0.47 | 0.45 | 95 | 1007.2 |
| 20260506210036 | 44 | 30 | 2.0 | 5.0 | 0.01 | 0.47 | 0.45 | 95 | 1007.5 |
| 20260506204536 | 44 | 34 | 3.0 | 7.0 | 0.02 | 0.48 | 0.45 | 95 | 1007.6 |
| 20260506203041 | 44 | 8 | 3.0 | 6.0 | 0.02 | 0.48 | 0.45 | 95 | 1007.7 |
| 20260506201537 | 44 | 28 | 4.0 | 8.0 | 0.02 | 0.48 | 0.45 | 95 | 1007.5 |
| 20260506200040 | 44 | 340 | 4.0 | 8.0 | 0.01 | 0.47 | 0.44 | 95 | 1007.6 |
| 20260506194536 | 44 | 18 | 4.0 | 10.0 | 0.00 | 0.48 | 0.43 | 95 | 1007.3 |
| 20260506193033 | 44 | 11 | 3.0 | 8.0 | 0.01 | 0.48 | 0.43 | 95 | 1007.3 |
| 20260506191535 | 45 | 345 | 1.0 | 6.0 | 0.01 | 0.48 | 0.43 | 96 | 1007.2 |
| 20260506190037 | 44 | 47 | 3.0 | 8.0 | 0.01 | 0.48 | 0.43 | 95 | 1007.2 |
| 20260506184545 | 44 | 25 | 3.0 | 6.0 | 0.01 | 0.62 | 0.43 | 95 | 1007.5 |
| 20260506183034 | 44 | 20 | 3.0 | 7.0 | 0.01 | 0.61 | 0.42 | 96 | 1007.5 |
| 20260506181534 | 44 | 34 | 1.0 | 7.0 | 0.02 | 0.61 | 0.42 | 95 | 1007.7 |
| 20260506180035 | 44 | 63 | 4.0 | 6.0 | 0.02 | 0.61 | 0.42 | 95 | 1007.8 |
| 20260506174537 | 44 | 25 | 3.0 | 7.0 | 0.04 | 0.63 | 0.42 | 95 | 1008.3 |
| 20260506173055 | 44 | 26 | 3.0 | 8.0 | 0.04 | 0.62 | 0.41 | 95 | 1008.2 |
| 20260506171537 | 44 | 44 | 2.0 | 6.0 | 0.05 | 0.61 | 0.40 | 96 | 1008.3 |
| 20260506170040 | 43 | 47 | 4.0 | 8.0 | 0.07 | 0.61 | 0.40 | 96 | 1007.9 |
| 20260506164535 | 43 | 41 | 3.0 | 7.0 | 0.07 | 0.58 | 0.38 | 96 | 1008.4 |
| 20260506163038 | 43 | 46 | 3.0 | 6.0 | 0.07 | 0.57 | 0.36 | 96 | 1008.3 |
| 20260506161538 | 42 | 52 | 2.0 | 8.0 | 0.09 | 0.56 | 0.35 | 96 | 1008.7 |
| 20260506160038 | 42 | 41 | 3.0 | 9.0 | 0.09 | 0.54 | 0.33 | 96 | 1008.6 |
| 20260506154537 | 42 | 49 | 5.0 | 9.0 | 0.09 | 0.52 | 0.31 | 96 | 1008.9 |
| 20260506153032 | 42 | 42 | 5.0 | 8.0 | 0.08 | 0.50 | 0.29 | 95 | 1008.8 |
| 20260506151536 | 42 | 2 | 5.0 | 9.0 | 0.07 | 0.47 | 0.26 | 95 | 1009.2 |
| 20260506150035 | 42 | 44 | 3.0 | 7.0 | 0.06 | 0.45 | 0.24 | 95 | 1008.8 |
| 20260506144542 | 42 | 56 | 5.0 | 9.0 | 0.05 | 0.43 | 0.22 | 95 | 1008.5 |
| 20260506143040 | 43 | 53 | 4.0 | 10.0 | 0.03 | 0.41 | 0.20 | 95 | 1008.8 |
| 20260506141534 | 42 | 41 | 4.0 | 11.0 | 0.03 | 0.40 | 0.19 | 95 | 1008.8 |
| 20260506140033 | 43 | 1 | 4.0 | 7.0 | 0.03 | 0.39 | 0.18 | 95 | 1009.1 |
| 20260506134539 | 43 | 50 | 4.0 | 7.0 | 0.04 | 0.38 | 0.17 | 95 | 1008.9 |
| 20260506133034 | 43 | 61 | 4.0 | 9.0 | 0.05 | 0.38 | 0.17 | 94 | 1008.7 |
| 20260506131548 | 43 | 30 | 4.0 | 8.0 | 0.05 | 0.37 | 0.16 | 94 | 1009.1 |
| 20260506130053 | 43 | 44 | 3.0 | 5.0 | 0.06 | 0.36 | 0.15 | 94 | 1008.9 |
| 20260506124535 | 43 | 31 | 3.0 | 5.0 | 0.05 | 0.34 | 0.13 | 93 | 1009.3 |
| 20260506123037 | 44 | 42 | 2.0 | 4.0 | 0.06 | 0.33 | 0.12 | 93 | 1009.1 |
| 20260506121539 | 44 | 0 | 0.0 | 3.0 | 0.06 | 0.32 | 0.11 | 92 | 1009.5 |
| 20260506120034 | 44 | 338 | 1.0 | 5.0 | 0.04 | 0.30 | 0.09 | 90 | 1009.9 |
| 20260506114535 | 45 | 13 | 1.0 | 6.0 | 0.03 | 0.29 | 0.08 | 88 | 1009.7 |
| 20260506113040 | 46 | 28 | 2.0 | 5.0 | 0.02 | 0.27 | 0.06 | 90 | 1009.3 |
| 20260506111540 | 46 | 0 | 0.0 | 0.0 | 0.01 | 0.26 | 0.05 | 94 | 1009.0 |
| 20260506110043 | 46 | 0 | 0.0 | 0.0 | 0.01 | 0.26 | 0.05 | 94 | 1008.9 |
| 20260506104547 | 46 | 0 | 0.0 | 0.0 | 0.01 | 0.26 | 0.05 | 93 | 1009.0 |
| 20260506103047 | 46 | 0 | 0.0 | 0.0 | 0.00 | 0.25 | 0.04 | 92 | 1009.0 |
| 20260506101548 | 46 | 0 | 0.0 | 0.0 | 0.00 | 0.25 | 0.04 | 91 | 1008.7 |
| 20260506100048 | 46 | 0 | 0.0 | 0.0 | 0.01 | 0.25 | 0.04 | 91 | 1008.9 |
| 20260506094540 | 47 | 0 | 0.0 | 0.0 | 0.01 | 0.25 | 0.04 | 91 | 1008.9 |
| 20260506093041 | 47 | 0 | 0.0 | 0.0 | 0.01 | 0.25 | 0.04 | 91 | 1009.3 |
| 20260506091539 | 48 | 0 | 0.0 | 1.0 | 0.01 | 0.25 | 0.04 | 88 | 1009.1 |
| 20260506090038 | 48 | 0 | 0.0 | 1.0 | 0.00 | 0.24 | 0.03 | 85 | 1009.4 |
| 20260506084549 | 48 | 49 | 1.0 | 4.0 | 0.00 | 0.24 | 0.03 | 83 | 1009.2 |
| 20260506083039 | 48 | 0 | 2.0 | 6.0 | 0.00 | 0.24 | 0.03 | 85 | 1009.1 |
| 20260506081541 | 49 | 0 | 2.0 | 7.0 | 0.00 | 0.24 | 0.03 | 86 | 1009.2 |
| 20260506073043 | 49 | 0 | 0.0 | 4.0 | 0.00 | 0.24 | 0.03 | 92 | 1008.6 |
| 20260506071537 | 49 | 83 | 0.0 | 3.0 | 0.00 | 0.24 | 0.03 | 91 | 1008.8 |
| 20260506061534 | 50 | 115 | 0.0 | 3.0 | 0.00 | 0.24 | 0.03 | 90 | 1008.7 |
| 20260506044615 | 52 | 0 | 0.0 | 1.0 | 0.05 | 0.24 | 0.03 | 91 | 1008.4 |
| 20260506043032 | 52 | 0 | 0.0 | 4.0 | 0.04 | 0.23 | 0.02 | 90 | 1008.7 |
| 20260506041536 | 53 | 0 | 0.0 | 5.0 | 0.03 | 0.22 | 0.01 | 86 | 1008.3 |
| 20260506040036 | 55 | 0 | 0.0 | 4.0 | 0.02 | 0.21 | 0.00 | 81 | 1008.0 |
| 20260506034600 | 56 | 307 | 4.0 | 9.0 | 0.00 | 0.19 | 0.19 | 75 | 1007.8 |
| 20260506033036 | 57 | 312 | 5.0 | 14.0 | 0.00 | 0.19 | 0.19 | 74 | 1007.8 |
| 20260506031534 | 57 | 321 | 4.0 | 8.0 | 0.00 | 0.19 | 0.19 | 72 | 1007.6 |
| 20260506030038 | 58 | 342 | 2.0 | 7.0 | 0.00 | 0.19 | 0.19 | 70 | 1007.6 |
| 20260506024535 | 59 | 311 | 4.0 | 11.0 | 0.00 | 0.19 | 0.19 | 69 | 1007.4 |
| 20260506023047 | 59 | 309 | 6.0 | 10.0 | 0.00 | 0.19 | 0.19 | 67 | 1007.3 |
| 20260506021534 | 60 | 339 | 2.0 | 5.0 | 0.00 | 0.19 | 0.19 | 70 | 1007.0 |
| 20260506020032 | 60 | 323 | 2.0 | 4.0 | 0.00 | 0.19 | 0.19 | 70 | 1007.0 |
| 20260506014533 | 61 | 283 | 5.0 | 9.0 | 0.00 | 0.19 | 0.19 | 69 | 1007.2 |
| 20260506013040 | 62 | 324 | 4.0 | 11.0 | 0.00 | 0.19 | 0.19 | 73 | 1006.6 |
| 20260506011533 | 63 | 338 | 5.0 | 11.0 | 0.00 | 0.19 | 0.19 | 73 | 1006.0 |
| 20260506010042 | 64 | 283 | 3.0 | 5.0 | 0.00 | 0.19 | 0.19 | 72 | 1005.5 |
| 20260506004556 | 64 | 237 | 2.0 | 6.0 | 0.00 | 0.19 | 0.19 | 72 | 1005.1 |
| 20260506003043 | 64 | 299 | 1.0 | 4.0 | 0.00 | 0.19 | 0.19 | 72 | 1004.8 |
| 20260506001540 | 64 | 226 | 3.0 | 9.0 | 0.00 | 0.19 | 0.19 | 73 | 1004.6 |
| 20260506000037 | 63 | 233 | 4.0 | 8.0 | 0.00 | 0.19 | 0.19 | 77 | 1004.3 |
| 20260505234556 | 63 | 0 | 0.0 | 0.0 | 0.00 | 0.19 | 0.19 | 79 | 1004.3 |
| 20260505233038 | 63 | 0 | 0.0 | 0.0 | 0.00 | 0.19 | 0.19 | 77 | 1004.2 |
| 20260505231535 | 64 | 219 | 1.0 | 5.0 | 0.00 | 0.19 | 0.19 | 75 | 1004.0 |
| 20260505230041 | 64 | 207 | 2.0 | 5.0 | 0.00 | 0.19 | 0.19 | 74 | 1003.8 |
| 20260505224534 | 65 | 248 | 4.0 | 9.0 | 0.00 | 0.19 | 0.19 | 73 | 1003.5 |
| 20260505223036 | 65 | 219 | 3.0 | 8.0 | 0.00 | 0.19 | 0.19 | 73 | 1003.8 |